Location: Neuvy Saint Sepulchre
(46.5953°N, 1.8122°E)
Time: 11:22:16
(UTC+02:00)

ISS - Pass Details

Date: 09 May 2021
Orbit: 417 x 422 km, 51.6° (Epoch: 15 May)

Event Time Altitude Azimuth Distance (km) Brightness Sun altitude
Exits shadow 03:36:22 32° 315° (NW) 744 -2.4 -21.6°
Maximum altitude 03:37:10 38° 349° (N) 661 -2.4 -21.6°
Drops below altitude 10° 03:40:22 10° 60° (ENE) 1,506 -0.1 -21.3°
Sets 03:42:34 0° 68° (ENE) 2,373 0.9 -21.1°
